GW1009 Weather Reports


time (UTC)temp
F
wind
direction
speed
knots
gust
knots
rain 1hr
in
rain 24hr
in
rain mn
in
humidity
%
barometer
mb
20260905135630 63 323 3.5 7.8 0.00 0.00 0.00 81 1011.4
20260905135029 63 311 3.5 7.8 0.00 0.00 0.00 81 1011.4
20260905134526 62 320 2.6 8.7 0.00 0.00 0.00 84 1011.5
20260905134025 62 307 5.2 8.7 0.00 0.00 0.00 85 1011.3
20260905133525 61 327 2.6 9.6 0.00 0.00 0.00 84 1011.4
20260905133030 61 317 5.2 9.6 0.00 0.00 0.00 85 1011.6
20260905132524 61 360 2.6 7.8 0.00 0.00 0.00 86 1011.6
20260905132023 61 302 4.3 8.7 0.00 0.00 0.00 87 1011.7
20260905131530 61 319 5.2 8.7 0.00 0.00 0.00 89 1011.5
20260905131020 61 355 3.5 7.8 0.00 0.00 0.00 90 1011.4
20260905130518 60 321 4.3 7.8 0.00 0.00 0.00 91 1011.4
20260905130031 60 309 2.6 7.8 0.00 0.00 0.00 92 1011.5
20260905125515 59 315 2.6 7.8 0.00 0.00 0.00 93 1011.4
20260905125015 59 311 4.3 7.8 0.00 0.00 0.00 93 1011.4
20260905124515 59 292 4.3 7.8 0.00 0.00 0.00 93 1011.5
20260905124014 59 313 2.6 4.3 0.00 0.00 0.00 94 1011.5
20260905123514 59 306 1.7 3.5 0.00 0.00 0.00 94 1011.4
20260905123014 59 304 1.7 4.3 0.00 0.00 0.00 94 1011.4
20260905122518 59 360 2.6 4.3 0.00 0.00 0.00 94 1011.3
20260905122012 58 303 1.7 4.3 0.00 0.00 0.00 94 1011.1
20260905121512 58 305 2.6 4.3 0.00 0.00 0.00 94 1011.1
20260905121012 58 304 2.6 5.2 0.00 0.00 0.00 94 1011.1
20260905120512 58 302 2.6 5.2 0.00 0.00 0.00 94 1011.0
20260905120012 58 277 3.5 7.0 0.00 0.00 0.00 94 1011.1
20260905115512 58 300 1.7 7.0 0.00 0.00 0.00 94 1011.2
20260905115012 58 294 1.7 6.1 0.00 0.00 0.00 94 1011.2
20260905114510 58 284 1.7 7.0 0.00 0.00 0.00 94 1011.1
20260905114009 58 319 2.6 7.0 0.00 0.00 0.00 94 1010.9
20260905113509 58 290 1.7 4.3 0.00 0.00 0.00 94 1010.9
20260905113012 58 300 1.7 4.3 0.00 0.00 0.00 94 1010.8
20260905112508 58 300 1.7 3.5 0.00 0.00 0.00 94 1010.8
20260905112010 58 306 0.0 1.7 0.00 0.00 0.00 94 1010.6
20260905111507 58 306 0.0 1.7 0.00 0.00 0.00 94 1010.5
20260905111007 58 306 0.0 5.2 0.00 0.00 0.00 94 1010.3
20260905110507 58 306 2.6 5.2 0.00 0.00 0.00 94 1010.2
20260905110007 58 300 0.9 2.6 0.00 0.00 0.00 94 1010.2
20260905105506 58 300 0.9 4.3 0.00 0.00 0.00 94 1010.0
20260905105007 58 299 1.7 4.3 0.00 0.00 0.00 94 1010.0
20260905104506 58 277 1.7 4.3 0.00 0.00 0.00 94 1009.9
20260905104006 58 312 2.6 4.3 0.00 0.00 0.00 94 1010.0
20260905103506 57 306 0.0 0.0 0.00 0.00 0.00 94 1010.0
20260905103008 57 306 0.0 0.0 0.00 0.00 0.00 93 1010.0
20260905102505 57 306 0.0 0.0 0.00 0.00 0.00 93 1010.0
20260905102004 58 306 0.0 0.0 0.00 0.00 0.00 93 1010.0
20260905101504 58 306 0.0 0.0 0.00 0.00 0.00 93 1009.9
20260905101003 58 306 0.0 0.0 0.00 0.00 0.00 93 1009.8
20260905100503 58 306 0.0 0.0 0.00 0.00 0.00 93 1009.7
20260905100003 58 306 0.0 0.0 0.00 0.00 0.00 93 1009.7
20260905095504 58 306 0.0 0.0 0.00 0.00 0.00 93 1009.8
20260905095004 58 306 0.0 0.0 0.00 0.00 0.00 93 1009.9
20260905094504 58 306 0.0 0.0 0.00 0.00 0.00 93 1009.9
20260905094002 58 306 0.0 0.0 0.00 0.00 0.00 93 1009.9
20260905093502 58 306 0.0 0.0 0.00 0.00 0.00 93 1009.9
20260905093001 58 306 0.0 0.0 0.00 0.00 0.00 93 1009.9
20260905092501 58 306 0.0 0.0 0.00 0.00 0.00 93 1009.9
20260905092059 58 306 0.0 0.0 0.00 0.00 0.00 92 1009.9
20260905091601 58 305 0.0 0.0 0.00 0.00 0.00 92 1009.8
20260905091058 58 304 0.0 0.0 0.00 0.00 0.00 92 1009.8
20260905090558 58 320 0.0 0.0 0.00 0.00 0.00 92 1009.7
20260905090058 58 320 0.0 0.0 0.00 0.00 0.00 92 1009.7
20260905085558 58 320 0.0 0.0 0.00 0.00 0.00 92 1009.8
20260905085058 58 329 0.0 0.0 0.00 0.00 0.00 92 1009.9
20260905084656 58 329 0.0 0.0 0.00 0.00 0.00 92 1009.9
20260905084056 58 329 0.0 0.0 0.00 0.00 0.00 91 1009.8
20260905083556 58 329 0.0 0.0 0.00 0.00 0.00 91 1009.9
20260905083055 59 329 0.0 0.0 0.00 0.00 0.00 91 1009.9
20260905082554 59 329 0.0 0.0 0.00 0.00 0.00 91 1010.0
20260905082053 59 329 0.0 0.0 0.00 0.00 0.00 91 1010.0
20260905081553 60 329 0.0 0.0 0.00 0.00 0.00 91 1010.0
20260905081052 60 329 0.0 0.0 0.00 0.00 0.00 91 1010.0
20260905080552 60 329 0.0 0.0 0.00 0.00 0.00 91 1010.0
20260905080054 60 329 0.0 0.0 0.00 0.00 0.00 91 1010.0
20260905075554 60 329 0.0 0.0 0.00 0.00 0.00 91 1010.1
20260905075054 60 329 0.0 0.0 0.00 0.00 0.00 91 1010.1
20260905074557 60 329 0.0 0.0 0.00 0.00 0.00 91 1010.1
20260905074052 60 329 0.0 0.0 0.00 0.00 0.00 91 1010.0
20260905073551 60 329 0.0 0.0 0.00 0.00 0.00 90 1010.0
20260905073101 60 329 0.0 0.0 0.00 0.00 0.00 91 1010.0
20260905072551 60 297 0.0 0.0 0.00 0.00 0.00 90 1010.0
20260905072049 60 279 0.0 0.0 0.00 0.00 0.00 90 1010.0
20260905071550 60 279 0.0 0.0 0.00 0.00 0.00 90 1010.1
20260905071052 60 276 0.0 0.0 0.00 0.00 0.00 90 1010.1
20260905070553 60 275 0.0 0.0 0.00 0.00 0.00 90 1010.2
20260905070049 60 256 0.0 0.0 0.00 0.00 0.00 90 1010.1
20260905065550 60 256 0.0 0.0 0.00 0.00 0.00 90 1010.1
20260905065050 60 270 0.0 0.0 0.00 0.00 0.00 90 1010.2
20260905064547 60 270 0.0 0.0 0.00 0.00 0.00 90 1010.3
20260905064049 60 270 0.0 0.0 0.00 0.00 0.00 90 1010.4
20260905063547 60 270 0.0 0.0 0.00 0.00 0.00 89 1010.3
20260905063046 59 270 0.0 0.0 0.00 0.00 0.00 89 1010.3
20260905062547 60 270 0.0 0.0 0.00 0.00 0.00 89 1010.4
20260905062048 60 270 0.0 0.0 0.00 0.00 0.00 88 1010.4
20260905061545 60 270 0.0 0.0 0.00 0.00 0.00 88 1010.4
20260905061048 60 270 0.0 0.0 0.00 0.00 0.00 88 1010.4
20260905060549 60 270 0.0 0.0 0.00 0.00 0.00 87 1010.3
20260905060046 60 270 0.0 0.0 0.00 0.00 0.00 87 1010.4
20260905055543 60 270 0.0 0.0 0.00 0.00 0.00 87 1010.4
20260905055043 60 270 0.0 0.0 0.00 0.00 0.00 86 1010.5
20260905054546 60 270 0.0 0.0 0.00 0.00 0.00 86 1010.6
20260905054042 60 270 0.0 0.0 0.00 0.00 0.00 86 1010.5
20260905053542 60 270 0.0 0.0 0.00 0.00 0.00 86 1010.6
20260905053100 60 270 0.0 0.0 0.00 0.00 0.00 86 1010.7
20260905052541 60 312 0.0 0.0 0.00 0.00 0.00 86 1010.7
20260905052040 60 251 0.0 0.0 0.00 0.00 0.00 86 1010.7
20260905051539 60 251 0.0 0.0 0.00 0.00 0.00 86 1010.7
20260905051039 60 293 0.0 0.0 0.00 0.00 0.00 86 1010.8
20260905050539 60 293 0.0 0.0 0.00 0.00 0.00 86 1010.8
20260905050039 60 293 0.0 0.0 0.00 0.00 0.00 86 1010.8
20260905045540 60 293 0.0 0.0 0.00 0.00 0.00 87 1010.8
20260905045038 60 293 0.0 0.0 0.00 0.00 0.00 87 1010.8
20260905044538 60 293 0.0 0.0 0.00 0.00 0.00 87 1010.8
20260905044037 60 293 0.0 0.0 0.00 0.00 0.00 87 1010.9
20260905043537 60 293 0.0 0.0 0.00 0.00 0.00 87 1010.9
20260905043037 60 293 0.0 0.0 0.00 0.00 0.00 87 1010.9
20260905042538 60 292 0.0 0.0 0.00 0.00 0.00 88 1010.9
20260905042034 60 294 0.0 0.0 0.00 0.00 0.00 88 1010.9
20260905041532 60 294 0.0 0.0 0.00 0.00 0.00 88 1010.9
20260905041032 59 293 0.0 0.0 0.00 0.00 0.00 88 1010.9
20260905040534 59 293 0.0 0.0 0.00 0.00 0.00 89 1010.9
20260905040030 59 293 0.0 0.0 0.00 0.00 0.00 89 1010.9
20260905035531 59 293 0.0 0.0 0.00 0.00 0.00 89 1011.0
20260905035031 59 293 0.0 0.0 0.00 0.00 0.00 89 1011.0
20260905034530 59 293 0.0 0.0 0.00 0.00 0.00 89 1010.9
20260905034029 59 293 0.0 0.0 0.00 0.00 0.00 89 1010.9
20260905033531 59 293 0.0 0.0 0.00 0.00 0.00 88 1010.9
20260905033041 59 293 0.0 0.0 0.00 0.00 0.00 88 1010.9
20260905032528 59 293 0.0 0.0 0.00 0.00 0.00 88 1010.9
20260905032028 59 293 0.0 0.0 0.00 0.00 0.00 87 1010.9
20260905031529 60 293 0.0 0.0 0.00 0.00 0.00 87 1010.8
20260905031032 60 293 0.0 0.0 0.00 0.00 0.00 86 1010.8
20260905030528 60 293 0.0 0.0 0.00 0.00 0.00 86 1010.8
20260905030028 60 293 0.0 0.0 0.00 0.00 0.00 86 1010.8
20260905025531 60 293 0.0 0.0 0.00 0.00 0.00 86 1010.8
20260905025028 60 293 0.0 0.0 0.00 0.00 0.00 86 1010.9
20260905024528 60 293 0.0 0.0 0.00 0.00 0.00 87 1010.9
20260905024031 60 293 0.0 0.0 0.00 0.00 0.00 87 1011.0
20260905023527 60 293 0.0 0.0 0.00 0.00 0.00 87 1011.1
20260905023028 60 293 0.0 0.0 0.00 0.00 0.00 87 1011.1
20260905022527 59 293 0.0 0.0 0.00 0.00 0.00 88 1011.1
20260905022027 59 293 0.0 0.0 0.00 0.00 0.00 88 1011.2
20260905021534 59 293 0.0 0.0 0.00 0.00 0.00 88 1011.2
20260905021028 59 293 0.0 0.0 0.00 0.00 0.00 87 1011.3
20260905020526 59 293 0.0 0.0 0.00 0.00 0.00 87 1011.3
20260905020029 59 293 0.0 0.0 0.00 0.00 0.00 87 1011.3
20260905015525 59 293 0.0 0.0 0.00 0.00 0.00 87 1011.2
20260905015030 59 293 0.0 0.0 0.00 0.00 0.00 87 1011.3
20260905014526 59 293 0.0 0.0 0.00 0.00 0.00 87 1011.4
20260905014024 59 293 0.0 0.0 0.00 0.00 0.00 86 1011.3
20260905013525 59 293 0.0 0.0 0.00 0.00 0.00 86 1011.4
20260905013023 60 293 0.0 0.0 0.00 0.00 0.00 85 1011.4
20260905012524 60 293 0.0 0.0 0.00 0.00 0.00 85 1011.4
20260905012022 60 294 0.0 1.7 0.00 0.00 0.00 84 1011.4
20260905011523 60 294 0.0 1.7 0.00 0.00 0.00 84 1011.3
20260905011022 60 294 0.0 0.0 0.00 0.00 0.00 84 1011.3
20260905010524 60 294 0.0 0.0 0.00 0.00 0.00 83 1011.2
20260905010021 60 294 0.0 0.0 0.00 0.00 0.00 82 1011.3
20260905005522 60 294 0.0 0.0 0.00 0.00 0.00 82 1011.4
20260905005022 60 294 0.0 0.0 0.00 0.00 0.00 82 1011.3
20260905004524 61 294 0.0 0.0 0.00 0.00 0.00 81 1011.2
20260905004021 61 294 0.0 0.0 0.00 0.00 0.00 81 1011.2
20260905003524 61 294 0.0 0.0 0.00 0.00 0.00 81 1011.2
20260905003021 62 294 0.0 0.0 0.00 0.00 0.00 78 1011.1
20260905002521 62 294 0.0 0.0 0.00 0.00 0.00 78 1011.1
20260905002021 62 294 0.0 0.0 0.00 0.00 0.00 77 1011.1
20260905001521 63 294 0.0 0.9 0.00 0.00 0.00 76 1011.0
20260905001020 63 294 0.0 0.9 0.00 0.00 0.00 75 1011.1
20260905000520 64 294 0.0 1.7 0.00 0.00 0.00 73 1010.9
20260905000020 64 293 0.0 0.9 0.00 0.00 0.00 73 1010.9
20260904235519 64 360 0.0 0.9 0.00 0.00 0.00 71 1010.9
20260904235019 64 293 0.0 2.6 0.00 0.00 0.00 71 1011.0
20260904234519 65 293 0.0 3.5 0.00 0.00 0.00 70 1010.9
20260904234019 65 293 0.9 5.2 0.00 0.00 0.00 69 1010.9
20260904233519 65 284 0.0 5.2 0.00 0.00 0.00 69 1010.9
20260904233020 66 286 0.0 2.6 0.00 0.00 0.00 69 1010.9
20260904232521 66 305 0.0 2.6 0.00 0.00 0.00 68 1010.8
20260904232018 66 306 0.9 4.3 0.00 0.00 0.00 67 1010.8
20260904231522 66 306 1.7 6.1 0.00 0.00 0.00 66 1010.9
20260904231018 66 294 2.6 6.1 0.00 0.00 0.00 66 1010.7
20260904230518 67 298 2.6 7.0 0.00 0.00 0.00 66 1010.8
20260904230021 67 307 2.6 7.8 0.00 0.00 0.00 66 1010.8
20260904225518 67 300 3.5 7.8 0.00 0.00 0.00 65 1010.8
20260904225018 67 304 3.5 7.0 0.00 0.00 0.00 65 1010.8
20260904224517 67 294 3.5 7.0 0.00 0.00 0.00 65 1010.7
20260904224017 67 291 2.6 7.0 0.00 0.00 0.00 65 1010.7
20260904223518 68 253 1.7 8.7 0.00 0.00 0.00 64 1010.7
20260904223023 68 286 1.7 8.7 0.00 0.00 0.00 63 1010.6
20260904222520 68 278 2.6 7.8 0.00 0.00 0.00 64 1010.6
20260904222015 68 294 3.5 7.8 0.00 0.00 0.00 63 1010.7
20260904221515 68 285 3.5 7.8 0.00 0.00 0.00 63 1010.7
20260904221015 68 325 2.6 7.8 0.00 0.00 0.00 64 1010.6
20260904220518 68 299 5.2 8.7 0.00 0.00 0.00 64 1010.6
20260904220015 68 309 4.3 8.7 0.00 0.00 0.00 64 1010.5
20260904215515 68 311 4.3 10.4 0.00 0.00 0.00 63 1010.5
20260904215017 69 311 5.2 10.4 0.00 0.00 0.00 62 1010.5
20260904214518 69 307 5.2 13.0 0.00 0.00 0.00 62 1010.6
20260904214013 70 293 7.0 14.8 0.00 0.00 0.00 61 1010.5
20260904213514 70 299 7.0 13.0 0.00 0.00 0.00 59 1010.6
20260904213025 71 304 6.1 13.9 0.00 0.00 0.00 58 1010.5
20260904212516 71 317 7.8 14.8 0.00 0.00 0.00 56 1010.5
20260904212012 71 285 6.1 15.6 0.00 0.00 0.00 56 1010.5
20260904211518 71 288 7.8 15.6 0.00 0.00 0.00 54 1010.6
20260904211012 71 311 6.1 15.6 0.00 0.00 0.00 55 1010.5
20260904210512 71 310 7.8 13.9 0.00 0.00 0.00 54 1010.6
20260904210023 71 300 5.2 12.2 0.00 0.00 0.00 56 1010.6
20260904205512 71 309 6.1 13.0 0.00 0.00 0.00 56 1010.6
20260904205011 71 306 8.7 13.0 0.00 0.00 0.00 56 1010.6
20260904204520 71 290 7.0 13.9 0.00 0.00 0.00 57 1010.7
20260904204011 71 286 7.8 15.6 0.00 0.00 0.00 56 1010.7
20260904203511 71 277 5.2 13.9 0.00 0.00 0.00 57 1010.7
20260904203011 71 281 7.0 13.9 0.00 0.00 0.00 56 1010.7
20260904202515 71 286 6.1 14.8 0.00 0.00 0.00 55 1010.8
20260904202012 72 285 8.7 14.8 0.00 0.00 0.00 53 1010.9
20260904201510 72 309 7.8 17.4 0.00 0.00 0.00 55 1010.8
20260904201010 72 311 8.7 14.8 0.00 0.00 0.00 53 1010.8
20260904200515 72 302 7.8 14.8 0.00 0.00 0.00 56 1010.9
20260904200009 72 315 7.8 14.8 0.00 0.00 0.00 55 1010.9
20260904195509 72 283 7.8 13.0 0.00 0.00 0.00 56 1010.9
20260904195008 72 325 7.0 13.9 0.00 0.00 0.00 54 1010.9
20260904194508 72 288 6.1 14.8 0.00 0.00 0.00 54 1010.9
20260904194008 72 274 7.8 13.0 0.00 0.00 0.00 57 1010.9
20260904193508 72 255 6.1 12.2 0.00 0.00 0.00 55 1011.0
20260904193008 71 295 5.2 14.8 0.00 0.00 0.00 57 1010.9
20260904192508 72 316 7.8 14.8 0.00 0.00 0.00 56 1010.9
20260904192007 72 305 7.8 13.9 0.00 0.00 0.00 57 1011.0
20260904191510 72 326 5.2 13.0 0.00 0.00 0.00 55 1011.0
20260904191007 72 292 5.2 13.9 0.00 0.00 0.00 56 1010.9
20260904190507 73 286 7.8 13.9 0.00 0.00 0.00 55 1010.9
20260904190007 72 318 6.1 17.4 0.00 0.00 0.00 58 1010.9
20260904185506 72 305 8.7 17.4 0.00 0.00 0.00 54 1010.9
20260904185006 73 290 7.0 13.9 0.00 0.00 0.00 54 1011.0
20260904184506 73 284 8.7 18.2 0.00 0.00 0.00 53 1011.0
20260904184006 73 282 6.1 18.2 0.00 0.00 0.00 56 1011.1
20260904183506 73 292 6.1 15.6 0.00 0.00 0.00 56 1011.2
20260904183005 73 294 7.8 15.6 0.00 0.00 0.00 56 1011.1
20260904182505 73 278 8.7 14.8 0.00 0.00 0.00 55 1011.0
20260904182004 73 321 7.0 12.2 0.00 0.00 0.00 56 1011.0
20260904181504 73 276 6.1 16.5 0.00 0.00 0.00 56 1011.2
20260904181006 73 296 9.6 16.5 0.00 0.00 0.00 55 1011.1
20260904180506 73 277 7.0 14.8 0.00 0.00 0.00 57 1011.2
20260904180003 73 289 7.0 14.8 0.00 0.00 0.00 59 1011.3
20260904175503 73 279 7.0 15.6 0.00 0.00 0.00 59 1011.3
20260904175005 73 319 7.0 17.4 0.00 0.00 0.00 57 1011.1
20260904174502 72 313 10.4 17.4 0.00 0.00 0.00 61 1011.3
20260904174000 72 305 6.1 11.3 0.00 0.00 0.00 62 1011.2
20260904173501 72 281 6.1 11.3 0.00 0.00 0.00 61 1011.3
20260904173127 72 211 6.1 13.9 0.00 0.00 0.00 63 1011.4
20260904172600 72 289 7.8 13.9 0.00 0.00 0.00 63 1011.3
20260904172100 72 289 6.1 13.0 0.00 0.00 0.00 62 1011.4
20260904171609 71 338 7.8 13.0 0.00 0.00 0.00 63 1011.5
20260904171101 71 295 6.1 11.3 0.00 0.00 0.00 63 1011.5
20260904170600 71 300 7.0 12.2 0.00 0.00 0.00 62 1011.5
20260904170059 71 327 6.1 13.9 0.00 0.00 0.00 64 1011.6
20260904165558 71 302 9.6 13.9 0.00 0.00 0.00 62 1011.6
20260904165058 70 308 7.8 13.0 0.00 0.00 0.00 63 1011.7
20260904164559 71 302 8.7 13.0 0.00 0.00 0.00 62 1011.5
20260904164057 71 311 3.5 12.2 0.00 0.00 0.00 61 1011.4
20260904163556 71 317 6.1 14.8 0.00 0.00 0.00 64 1011.4
20260904163056 70 313 7.8 14.8 0.00 0.00 0.00 62 1011.5
20260904162556 70 302 7.0 13.9 0.00 0.00 0.00 62 1011.6
20260904162058 70 311 5.2 12.2 0.00 0.00 0.00 63 1011.5
20260904161556 70 309 6.1 13.0 0.00 0.00 0.00 63 1011.5
20260904161055 71 338 9.6 13.0 0.00 0.00 0.00 59 1011.5
20260904160554 72 315 5.2 12.2 0.00 0.00 0.00 63 1011.5
20260904160054 72 306 7.8 12.2 0.00 0.00 0.00 63 1011.4
20260904155553 71 328 4.3 13.0 0.00 0.00 0.00 65 1011.6
20260904155052 71 300 7.8 13.0 0.00 0.00 0.00 64 1011.6
20260904154552 71 315 8.7 13.0 0.00 0.00 0.00 63 1011.8
20260904154055 70 257 5.2 12.2 0.00 0.00 0.00 62 1011.7
20260904153551 70 290 7.0 12.2 0.00 0.00 0.00 65 1011.9
20260904153050 70 275 4.3 12.2 0.00 0.00 0.00 66 1011.8
20260904152552 70 301 6.1 12.2 0.00 0.00 0.00 65 1011.9
20260904152050 70 320 4.3 11.3 0.00 0.00 0.00 67 1011.9
20260904151549 70 294 7.0 12.2 0.00 0.00 0.00 67 1011.9
20260904151049 70 323 6.1 13.0 0.00 0.00 0.00 68 1011.9
20260904150547 70 327 7.8 13.0 0.00 0.00 0.00 69 1011.9
20260904150104 69 310 6.1 10.4 0.00 0.00 0.00 70 1011.8
20260904145547 69 313 5.2 10.4 0.00 0.00 0.00 71 1011.8
20260904145046 69 319 7.0 10.4 0.00 0.00 0.00 71 1011.9
20260904144545 69 300 5.2 10.4 0.00 0.00 0.00 71 1011.9
20260904144045 68 264 2.6 10.4 0.00 0.00 0.00 75 1012.1
20260904143544 68 311 5.2 10.4 0.00 0.00 0.00 71 1012.1
20260904143044 69 306 4.3 10.4 0.00 0.00 0.00 75 1012.0
20260904142543 68 283 3.5 10.4 0.00 0.00 0.00 77 1012.1
20260904142042 68 331 3.5 8.7 0.00 0.00 0.00 76 1012.0
20260904141545 67 324 3.5 9.6 0.00 0.00 0.00 77 1012.2
20260904141040 67 302 4.3 7.8 0.00 0.00 0.00 77 1012.2
20260904140541 67 292 4.3 10.4 0.00 0.00 0.00 78 1012.2
20260904140041 67 280 5.2 10.4 0.00 0.00 0.00 77 1012.1